Location: Del Amo
(33.8464°N, 118.2104°W)
Time: 07:42:42
(UTC+00:00)

Vanguard 1 Rocket - Pass Details

Date: 21 September 2024
Orbit: 650 x 4218 km, 34.3° (Epoch: 09 October)

Event Time Altitude Azimuth Distance (km) Brightness Sun altitude
Rises 07:42:21 0° 204° (SSW) 3,753 - -55.7°
Reaches altitude 10° 07:44:53 10° 192° (SSW) 3,103 - -55.7°
Maximum altitude 07:51:36 30° 133° (SE) 2,696 - -55.7°
Exits shadow 07:59:30 17° 88° (E) 4,416 10.8 -55.5°
Drops below altitude 10° 08:02:54 10° 80° (E) 5,346 11.4 -55.5°
Sets 08:09:00 0° 72° (ENE) 7,000 12.1 -55.3°
